Weather History for KOZR - March, 2013

Change the Weather History Date:

Sunday, March 10, 2013

  Actual Average Record
Temperature  
Mean Temperature 66 °F -  
Max Temperature 77 °F 66 °F 84 °F (2015)
Min Temperature 54 °F 44 °F 33 °F (1998)
Growing Degree Days 16 (Base 50)    
Moisture  
Dew Point 48 °F    
Average Humidity 57    
Maximum Humidity 78    
Minimum Humidity 37    
Precipitation  
Precipitation 0.00 in - - ()
Sea Level Pressure  
Sea Level Pressure 30.09 in    
Wind  
Wind Speed 9 mph (SE)    
Max Wind Speed 17 mph    
Max Gust Speed 22 mph    
Visibility 10 miles    
Events      
Averages and records for this station are not official NWS values.
T = Trace of Precipitation, MM = Missing Value Source: NWS Daily Summary

Daily Weather History Graph

Daily Weather History Graph

Search for Another Location

Airport or City:

Trip Planner

Search our weather history database for the weather conditions in past years. The results will help you decide how hot, cold, wet, or windy it might be!

Date:

Astronomy

Mar. 10, 2013 Rise Set
Actual Time 6:58 AM CDT 6:47 PM CDT
Civil Twilight 6:34 AM CDT 7:11 PM CDT
Nautical Twilight 6:06 AM CDT 7:40 PM CDT
Astronomical Twilight 5:38 AM CDT 8:08 PM CDT
Moon 5:55 AM CDT (3/10) 5:55 PM CDT (3/10)
Length of Visible Light 12h 37m
Length of Day
11h 49m
Waning Crescent, 2% of the Moon is Illuminated
Mar 10
Waning Crescent
Mar 11
New
Mar 19
First Quarter
Mar 27
Full
Apr 2
Last Quarter

Hourly Weather History & Observations

Time (CDT) Temp. Dew Point Humidity Pressure Visibility Wind Dir Wind Speed Gust Speed Precip Events Conditions
12:58 AM 54.1 °F 38.1 °F 55% 30.14 in 10.0 mi East 4.6 mph - N/A   Overcast
1:58 AM 55.6 °F 38.7 °F 53% 30.12 in 10.0 mi ESE 9.2 mph - N/A   Overcast
3:58 AM 55.8 °F 42.4 °F 61% 30.11 in 10.0 mi East 11.5 mph - N/A   Overcast
4:58 AM 55.8 °F 45.0 °F 67% 30.13 in 10.0 mi SE 9.2 mph - N/A   Mostly Cloudy
5:58 AM 55.4 °F 45.7 °F 70% 30.12 in 10.0 mi ESE 10.4 mph - N/A   Mostly Cloudy
6:58 AM 54.1 °F 46.0 °F 74% 30.14 in 10.0 mi ESE 8.1 mph - N/A   Mostly Cloudy
7:58 AM 55.0 °F 46.9 °F 74% 30.14 in 10.0 mi ESE 10.4 mph - N/A   Clear
8:58 AM 58.3 °F 48.4 °F 70% 30.13 in 10.0 mi ESE 15.0 mph - N/A   Scattered Clouds
9:58 AM 62.8 °F 48.9 °F 61% 30.14 in 10.0 mi SE 17.3 mph 21.9 mph N/A   Clear
10:58 AM 67.1 °F 50.0 °F 54% 30.15 in 10.0 mi ESE 11.5 mph - N/A   Mostly Cloudy
11:58 AM 70.5 °F 50.4 °F 49% 30.14 in 10.0 mi SSE 10.4 mph - N/A   Mostly Cloudy
12:39 PM 71.6 °F 50.0 °F 46% 30.11 in 10.0 mi South 13.8 mph - N/A   Scattered Clouds
12:58 PM 71.8 °F 50.2 °F 46% 30.12 in 10.0 mi SE 15.0 mph - N/A   Partly Cloudy
1:58 PM 75.2 °F 50.5 °F 42% 30.08 in 10.0 mi SSE 15.0 mph 21.9 mph N/A   Mostly Cloudy
2:49 PM 75.2 °F 50.0 °F 41% 30.06 in 10.0 mi SE 15.0 mph - N/A   Overcast
2:58 PM 75.4 °F 49.6 °F 40% 30.06 in 10.0 mi SSE 12.7 mph - N/A   Mostly Cloudy
3:58 PM 77.2 °F 49.5 °F 38% 30.06 in 10.0 mi SSE 9.2 mph - N/A   Clear
4:58 PM 76.3 °F 47.8 °F 37% 30.04 in 10.0 mi SE 10.4 mph - N/A   Clear
5:58 PM 73.9 °F 48.6 °F 41% 30.04 in 10.0 mi SE 9.2 mph - N/A   Clear
6:58 PM 69.4 °F 48.2 °F 47% 30.05 in 10.0 mi SSE 8.1 mph - N/A   Clear
7:58 PM 65.8 °F 49.5 °F 55% 30.07 in 10.0 mi South 6.9 mph - N/A   Clear
8:58 PM 61.9 °F 48.9 °F 62% 30.06 in 10.0 mi SSE 5.8 mph - N/A   Clear
9:58 PM 60.3 °F 49.1 °F 67% 30.06 in 10.0 mi SSE 5.8 mph - N/A   Clear
10:58 PM 58.3 °F 49.1 °F 71% 30.06 in 10.0 mi SE 4.6 mph - N/A   Clear
11:58 PM 57.4 °F 49.5 °F 75% 30.04 in 10.0 mi SE 3.5 mph - N/A   Clear
12:58 AM 56.3 °F 49.6 °F 78% 30.03 in 10.0 mi SE 4.6 mph - N/A   Clear